Regional Weather Roundup
Issued by NWS

Home | Current Version | Previous Version | Text Only | Print | Product List | Glossary On
Versions: 1 2 3 4 5 6 7 8 9 10 11 12 13 14 15 16 17 18 19 20 21 22 23 24 25 26 27 28 29 30 31 32 33 34 35 36 37 38 39 40 41 42 43 44 45 46 47 48 49 50
000
ASUS45 KBOU 241207
RWRCO

WEATHER ROUNDUP FOR COLORADO
NATIONAL WEATHER SERVICE DENVER/BOULDER CO
500 AM MST MON NOV 24 2014

NOTE: "FAIR" INDICATES FEW OR NO CLOUDS BELOW 12000 FEET WITH NO
SIGNIFICANT WEATHER AND/OR OBSTRUCTIONS TO VISIBILITY.

COZ001>005-013-030-031-241300-
...NORTHWEST COLORADO...

CITY           SKY/WX    TMP DP  RH WIND       PRES   REMARKS
CRAIG          LGT SNOW  23  19  85 SW13      30.02F VSB 3/4 WCI  11
HAYDEN         CLOUDY    19  16  86 N3        30.01S VSB 3/4
MEEKER         SNOW      19  15  84 CALM      30.06S VSB 1/2
MOUNT WERNER   NOT AVBL
STEAMBOAT SPGS CLOUDY    19  17  90 E5        30.00S WCI  12
WALDEN         CLOUDY    18   9  68 SW7       29.90S WCI   8
$$

COZ006>008-011-241300-
...WEST CENTRAL VALLEYS...

CITY           SKY/WX    TMP DP  RH WIND       PRES   REMARKS
GRAND JUNCTION CLOUDY    26  15  63 E6        30.13S WCI  19
MONTROSE       CLOUDY    24  13  62 SE9       30.14F WCI  14
EAGLE          CLOUDY    23  16  74 W8        30.07R WCI  14
RIFLE          CLOUDY    22  15  75 SW5       30.12R WCI  16
DELTA          CLOUDY    26  17  68 E5        30.14F WCI  20
NUCLA          MOCLDY    23  12  63 SE3       30.18R
$$

COZ017>023-064>068-241300-
...SOUTHWEST COLORADO...

CITY           SKY/WX    TMP DP  RH WIND       PRES   REMARKS
DURANGO        PTCLDY    20   7  57 SW6       30.05R WCI  12
CORTEZ         CLEAR     12   9  87 CALM      30.14F
PAGOSA SPRINGS PTCLDY    14   5  66 NE6       30.05R WCI   5
TELLURIDE      NOT AVBL
WOLF CREEK PAS MOCLDY     3  -9  55 MISG      29.92S
$$

COZ009-010-012-014-032>034-037-058>063-241300-
...CENTRAL COLORADO...

CITY           SKY/WX    TMP DP  RH WIND       PRES   REMARKS
ASPEN          LGT SNOW  16  13  88 CALM      30.01F FOG
BUENA VISTA    MOCLDY    20   0  40 W10G16    29.97R WCI   9
COPPER MTN       N/A      5   0  78 W20G25    29.85R WCI -15
BERTHOUD PASS  SNOW       0  -6  78 NW37G51   29.74F VSB 1/4 WCI -28
COTTONWOOD PAS CLOUDY    18   0  45 W33G47    29.86R WCI  -3
GUNNISON       MOCLDY     9   0  66 N3        30.08S
KREMMLING      LGT SNOW  19  12  73 SW9       29.98F WCI   9
LEADVILLE      LGT SNOW   8   4  83 VRB5      29.92R FOG     WCI   0
MONARCH PASS   CLOUDY     1  -2  85 MISG      29.95R
SALIDA         MOCLDY    24   4  43 W25G33    30.04R WCI   7
SUNLIGHT       CLOUDY   N/A N/A N/A CALM      29.95S
WILKERSON PASS MOCLDY     5  -4  66 W16G29    29.81R WCI -14
$$

COZ069>075-241300-
...SAN LUIS VALLEY/SANGRE DE CRISTO MOUNTAINS...

CITY           SKY/WX    TMP DP  RH WIND       PRES   REMARKS
ALAMOSA        PTCLDY     5  -2  72 SW6       30.01R WCI  -6
LA VETA PASS   PTCLDY     9   0  66 MISG      29.85R
SAGUACHE       NOT AVBL
$$

COZ035-036-038>040-241300-
...NORTHERN COLORADO FRONT RANGE...

CITY           SKY/WX    TMP DP  RH WIND       PRES   REMARKS
DENVER INTL AP PTCLDY    30   8  39 W15       29.85R WCI  19
DMNS CITY PARK   N/A     30   4  32 W6        29.86S WCI  24
AURORA         PTCLDY    29   6  36 W12       29.87R WCI  20
FRONT RANGE AP NOT AVBL
ERIE MUNI ARPT MOCLDY    32   5  31 NW8       29.85S WCI  25
BOULDER MUN AP MOCLDY    34   5  29 E9        29.84R WCI  26
CENTENNIAL     CLOUDY    28   3  34 W5        29.87R WCI  23
BROOMFIELD     MOCLDY    32   7  34 NW14G29   29.86R WCI  22
FORT COLLINS   PTCLDY    32   9  37 W9G18     29.85S WCI  24
LONGMONT       PTCLDY    37   7  28 W18G33    29.86F
$$

COZ041-046-047-076>085-087-088-241300-
...PIKES PEAK/PALMER DIVIDE AND SOUTHERN FOOTHILLS...

CITY           SKY/WX    TMP DP  RH WIND       PRES   REMARKS
COLO. SPRINGS  MOCLDY    30   3  31 NW20G25   29.86S WCI  17
A. F. ACADEMY  MOCLDY    28  -1  28 W21G35    29.86R WCI  14
ELLICOTT       NOT AVBL
FALCON         NOT AVBL
FORT CARSON    PTCLDY    19   5  53 NE3       29.86R
LIMON          CLEAR     17   7  64 NW15      29.84S WCI   2
MONUMENT HILL  MOCLDY    18   9  68 W10       29.85R WCI   6
TRINIDAD       PTCLDY    15   7  70 W17       29.94R WCI  -1
$$

COZ042>045-048>051-090-091-241300-
...NORTHEAST COLORADO...

CITY           SKY/WX    TMP DP  RH WIND       PRES   REMARKS
GREELEY ARPT   CLOUDY    27  10  50 N6        29.86S WCI  20
AKRON          PTCLDY    23  11  60 W17       29.81S WCI   9
BURLINGTON     CLEAR     19   8  62 W12       29.85S WCI   7
WRAY           CLEAR     30  12  48 W18       29.81S WCI  17
STERLING       PTCLDY    32  16  51 W14       29.81S WCI  22
HOLYOKE        CLEAR     30  16  55 W13       29.80S WCI  20
FORT MORGAN    MOCLDY    29  12  48 NW13      29.86R WCI  19
$$

COZ086-089-092>099-241300-
...SOUTHEAST COLORADO...

CITY           SKY/WX    TMP DP  RH WIND       PRES   REMARKS
PUEBLO         CLEAR     30  12  47 W15       29.90F WCI  19
LA JUNTA       CLEAR     22  16  78 W10       29.91F WCI  11
LAMAR          CLEAR     24  20  84 W13       29.90S WCI  12
SPRINGFIELD      N/A     23  17  78 W12       29.92R WCI  12
$$



USA.gov is the U.S. government's official web portal to all federal, state and local government web resources and services.